Regional Weather Roundup
Issued by NWS

Home | Current Version | Previous Version | Text Only | Print | Product List | Glossary Off
Versions: 1 2 3 4 5 6 7 8 9 10 11 12 13 14 15 16 17 18 19 20 21 22 23 24 25 26 27

000
ASUS45 KBOI 172210
RWRID

IDAHO REGIONAL WEATHER ROUNDUP
NATIONAL WEATHER SERVICE BOISE ID
300 PM MST TUE JAN 17 2017

NOTE: "FAIR" INDICATES FEW OR NO CLOUDS BELOW 12000 FEET
WITH NO SIGNIFICANT WEATHER AND/OR OBSTRUCTIONS TO VISIBILITY

IDZ012-014-172300-
SOUTHWEST IDAHO


CITY           SKY/WX    TMP DP  RH WIND       PRES   REMARKS
BOISE          SUNNY     14   6  70 SW7       30.24F HAZE    WCI   4
CALDWELL       SUNNY     12   3  67 W6        30.32F HAZE    WCI   3
MOUNTAIN HOME  SUNNY     13  13  98 VRB2      30.25F
$$

IDZ016-017-172300-
SOUTHCENTRAL IDAHO


CITY           SKY/WX    TMP DP  RH WIND       PRES   REMARKS
BURLEY         SUNNY     22  12  65 NE17      30.17F WCI   8
JEROME         SUNNY     19  12  74 NE24      30.17F WCI   2
TWIN FALLS     SUNNY     23  14  68 NE14      30.17F WCI  11
$$

IDZ019>023-172300-
SOUTHEAST IDAHO


CITY           SKY/WX    TMP DP  RH WIND       PRES   REMARKS
IDAHO FALLS    CLOUDY    10   5  80 N7        30.23F WCI  -1
POCATELLO      CLOUDY    17   7  64 NE9       30.24R WCI   6
REXBURG        CLOUDY    15   5  64 N3        30.21F
$$

IDZ006-010-011-018-031-032-172300-
CENTRAL IDAHO MOUNTAINS


CITY           SKY/WX    TMP DP  RH WIND       PRES   REMARKS
MCCALL         SUNNY     16  11  80 SW6       30.04F WCI   7
HAILEY         SUNNY     27  12  54 CALM      30.16F
STANLEY          N/A     13   4  67 N6        30.09F WCI   4
SALMON         CLOUDY     0  -8  71 CALM      30.28F
CHALLIS        SUNNY      1  -7  68 CALM      30.17F
$$

IDZ002-004-006-007-026-172300-
NORTHERN IDAHO


CITY           SKY/WX    TMP DP  RH WIND       PRES   REMARKS
LEWISTON       PTSUNNY   32  19  58 S25G35    29.97F WCI  19
LOWELL           N/A     29  24  82 N6        30.06F WCI  23
COEUR D`ALENE  CLOUDY    28  25  88 NE8       29.96F WCI  20
MULLAN PASS    CLOUDY    30  20  66 S8G18     29.89F WCI  22
$$




USA.gov is the U.S. government's official web portal to all federal, state and local government web resources and services.